Agadir Al Massira, Morocco

6:05 AM WET on May 28, 2017 (GMT +0000)
Agadir Al Massira

Weather History for GMAD - May, 2013

Change the Weather History Date:

Thursday, May 2, 2013

  Actual Average Record
Temperature  
Mean Temperature 62 °F -  
Max Temperature 73 °F - - ()
Min Temperature 50 °F - - ()
Degree Days  
Heating Degree Days 4    
Growing Degree Days 12 (Base 50)    
Moisture  
Dew Point 50 °F    
Average Humidity 65    
Maximum Humidity 94    
Minimum Humidity 29    
Precipitation  
Precipitation 0.00 in - - ()
Sea Level Pressure  
Sea Level Pressure 29.93 in    
Wind  
Wind Speed 4 mph ()    
Max Wind Speed 24 mph    
Max Gust Speed -    
Visibility 6.1 miles    
Events      
T = Trace of Precipitation, MM = Missing Value Source: Averaged Metar Reports

Daily Weather History Graph

Daily Weather History Graph

Search for Another Location

Airport or City:

Trip Planner

Search our weather history database for the weather conditions in past years. The results will help you decide how hot, cold, wet, or windy it might be!

Date:

Astronomy

May. 02, 2013 Rise Set
Actual Time 6:53 AM WEST 8:16 PM WEST
Civil Twilight 6:27 AM WEST 8:41 PM WEST
Nautical Twilight 5:57 AM WEST 9:12 PM WEST
Astronomical Twilight 5:25 AM WEST 9:44 PM WEST
Moon 1:59 AM WEST (5/2) 1:21 PM WEST (5/2)
Length of Visible Light 14h 13m
Length of Day
13h 22m
Waning Gibbous, 50% of the Moon is Illuminated
May 2
Waning Gibbous
May 2
Last Quarter
May 10
New
May 18
First Quarter
May 25
Full

Hourly Weather History & Observations

Time (WEST) Temp. Dew Point Humidity Pressure Visibility Wind Dir Wind Speed Gust Speed Precip Events Conditions
12:00 AM 59.0 °F 51.8 °F 77% 29.95 in - Calm Calm - N/A   Clear
1:00 AM 58 °F 52 °F 76% 29.95 in 6 mi Calm Calm - -  
1:00 AM 59.0 °F 51.8 °F 77% 29.95 in - Calm Calm - N/A   Clear
2:00 AM 57.2 °F 51.8 °F 82% 29.92 in - Calm Calm - N/A   Clear
3:00 AM 55.4 °F 51.8 °F 88% 29.92 in - Calm Calm - N/A   Clear
4:00 AM 54 °F 50 °F 82% 29.92 in 6 mi Calm Calm - -  
4:00 AM 53.6 °F 50.0 °F 88% 29.92 in - Calm Calm - N/A   Clear
5:00 AM 53.6 °F 50.0 °F 88% 29.92 in - Calm Calm - N/A   Clear
6:00 AM 51.8 °F 48.2 °F 88% 29.92 in - Calm Calm - N/A   Clear
7:00 AM 51 °F 48 °F 84% 29.94 in 6 mi Calm Calm - -   Partly Cloudy
7:00 AM 50.0 °F 48.2 °F 94% 29.92 in 6.2 mi Calm Calm - N/A   Scattered Clouds
8:00 AM 55.4 °F 51.8 °F 88% 29.95 in 6.2 mi Calm Calm - N/A   Partly Cloudy
9:00 AM 59.0 °F 53.6 °F 82% 29.95 in 6.2 mi Calm Calm - N/A   Partly Cloudy
10:00 AM 64 °F 53 °F 59% 29.96 in 6 mi Calm Calm - -   Scattered Clouds
10:00 AM 64.4 °F 53.6 °F 68% 29.95 in 6.2 mi Calm Calm - N/A   Partly Cloudy
11:00 AM 64.4 °F 51.8 °F 64% 29.95 in 6.2 mi WNW 4.6 mph - N/A   Scattered Clouds
12:00 PM 68.0 °F 48.2 °F 49% 29.95 in 6.2 mi West 5.8 mph - N/A   Scattered Clouds
1:00 PM 70 °F 46 °F 31% 29.96 in 6 mi West 10.4 mph - -   Partly Cloudy
1:00 PM 69.8 °F 46.4 °F 43% 29.95 in 6.2 mi West 10.4 mph - N/A   Scattered Clouds
2:00 PM 71.6 °F 48.2 °F 43% 29.95 in 6.2 mi West 11.5 mph - N/A   Scattered Clouds
3:00 PM 73.4 °F 46.4 °F 38% 29.92 in 6.2 mi West 16.1 mph - N/A   Unknown
4:00 PM 72 °F 46 °F 29% 29.92 in 6 mi West 20.7 mph - -  
4:00 PM 71.6 °F 46.4 °F 41% 29.92 in - West 20.7 mph - N/A   Clear
5:00 PM 69.8 °F 48.2 °F 46% 29.89 in - West 24.2 mph - N/A   Clear
6:00 PM 69.8 °F 48.2 °F 46% 29.89 in - West 18.4 mph - N/A   Clear
7:00 PM 67 °F 49 °F 42% 29.90 in 6 mi West 17.3 mph - -  
7:00 PM 66.2 °F 50.0 °F 56% 29.89 in - West 17.3 mph - N/A   Clear
8:00 PM 64.4 °F 50.0 °F 59% 29.89 in - WSW 10.4 mph - N/A   Clear
9:00 PM 62.6 °F 50.0 °F 63% 29.92 in 6.2 mi WSW 10.4 mph - N/A   Unknown
10:00 PM 62 °F 51 °F 59% 29.94 in - SW 5.8 mph - -  
10:00 PM 62.6 °F 51.8 °F 68% 29.92 in - SW 5.8 mph - N/A   Unknown
11:00 PM 59.0 °F 51.8 °F 77% 29.95 in - South 9.2 mph - N/A   Unknown